Location: Kellogg
(38.0159°N, 90.0546°W)
Time: 08:45:50
(UTC+00:00)

S-56A Canister/Altair - Pass Details

Date: 20 September 2024
Orbit: 636 x 2487 km, 38.9° (Epoch: 09 October)

Event Time Altitude Azimuth Distance (km) Brightness Sun altitude
Rises 20:29:32 0° 193° (SSW) 2,969 11.1 38.2°
Reaches altitude 10° 20:33:49 10° 154° (SSE) 2,008 9.9 37.5°
Maximum altitude 20:34:49 11° 140° (SE) 1,972 9.7 37.4°
Drops below altitude 10° 20:35:51 10° 127° (SE) 2,034 9.6 37.2°
Sets 20:40:19 0° 88° (E) 3,112 10.2 36.5°
